GW2055 Weather Reports


time (UTC)temp
C
wind
direction
speed
KPH
gust
KPH
rain 1hr
cm
rain 24hr
cm
rain mn
cm
humidity
%
barometer
mb
20260507091603 7 0 0.0 0.0 0.00 0.00 0.00 85 1018.3
20260507090113 7 0 0.0 0.0 0.00 0.00 0.00 85 1018.4
20260507084557 7 0 0.0 1.6 0.00 0.00 0.00 85 1018.5
20260507083102 7 0 0.0 1.6 0.00 0.00 0.00 85 1018.7
20260507081558 7 82 0.0 1.6 0.00 0.00 0.00 84 1018.9
20260507080059 7 0 0.0 0.0 0.00 0.00 0.00 83 1018.9
20260507074600 7 0 0.0 1.6 0.00 0.00 0.00 83 1019.1
20260507073110 7 0 0.0 0.0 0.00 0.00 0.00 83 1018.9
20260507071601 7 0 0.0 0.0 0.00 0.00 0.00 83 1019.3
20260507070138 7 0 0.0 0.0 0.00 0.00 0.00 82 1019.0
20260507064556 7 0 0.0 0.0 0.00 0.00 0.00 82 1019.2
20260507063101 7 0 0.0 0.0 0.00 0.00 0.00 82 1019.2
20260507061555 7 0 0.0 1.6 0.00 0.00 0.00 82 1019.3
20260507060056 8 0 0.0 0.0 0.00 0.00 0.00 80 1019.2
20260507054615 8 0 0.0 0.0 0.00 0.00 0.00 80 1019.0
20260507053057 8 0 0.0 0.0 0.00 0.00 0.00 78 1019.1
20260507051603 8 0 0.0 0.0 0.00 0.00 0.00 77 1018.9
20260507050057 8 0 0.0 0.0 0.00 0.00 0.00 77 1019.0
20260507044605 8 0 0.0 0.0 0.00 0.00 0.00 76 1019.2
20260507043056 9 0 0.0 0.0 0.00 0.00 0.00 75 1018.9
20260507041557 9 0 0.0 0.0 0.00 0.00 0.00 75 1019.0
20260507040057 10 0 0.0 0.0 0.00 0.00 0.00 73 1019.0
20260507034559 10 0 0.0 0.0 0.00 0.00 0.00 72 1019.2
20260507033057 10 0 0.0 0.0 0.00 0.00 0.00 69 1018.9
20260507031557 11 0 0.0 0.0 0.00 0.00 0.00 70 1018.6
20260507030107 11 0 0.0 0.0 0.00 0.00 0.00 68 1018.5
20260507024612 11 0 0.0 0.0 0.00 0.00 0.00 66 1018.3
20260507023057 12 0 0.0 0.0 0.00 0.00 0.00 61 1018.2
20260507021616 12 0 0.0 0.0 0.00 0.00 0.00 59 1018.1
20260507020106 13 0 0.0 0.0 0.00 0.00 0.00 56 1018.0
20260507014612 13 0 0.0 0.0 0.00 0.00 0.00 53 1017.8
20260507013057 15 0 0.0 0.0 0.00 0.00 0.00 50 1017.7
20260507011604 15 0 0.0 1.6 0.00 0.00 0.00 48 1017.5
20260507010108 15 0 0.0 4.8 0.00 0.00 0.00 46 1017.3
20260507004558 16 355 0.0 4.8 0.00 0.00 0.00 45 1017.2
20260507003056 16 0 0.0 4.8 0.00 0.00 0.00 45 1017.0
20260507001602 16 0 0.0 4.8 0.00 0.00 0.00 43 1017.0
20260507000056 17 340 0.0 6.4 0.00 0.00 0.00 41 1017.0
20260506234559 17 19 1.6 11.3 0.00 0.00 0.00 41 1016.8
20260506233059 18 0 1.6 6.4 0.00 0.00 0.00 42 1016.6
20260506231555 18 5 1.6 8.0 0.00 0.00 0.00 42 1016.5
20260506230103 17 346 1.6 14.5 0.00 0.00 0.00 42 1016.4
20260506224559 19 0 1.6 12.9 0.00 0.00 0.00 40 1016.1
20260506223057 18 0 1.6 12.9 0.00 0.00 0.00 42 1016.0
20260506221600 19 355 1.6 8.0 0.00 0.00 0.00 40 1015.8
20260506220057 18 0 3.2 9.7 0.00 0.00 0.00 42 1016.0
20260506214557 18 0 1.6 9.7 0.00 0.00 0.00 40 1016.3
20260506213056 20 0 1.6 9.7 0.00 0.00 0.00 38 1016.4
20260506211559 20 329 3.2 9.7 0.00 0.00 0.00 40 1016.3
20260506210100 20 289 1.6 8.0 0.00 0.00 0.00 39 1016.5
20260506204559 20 0 1.6 12.9 0.00 0.00 0.00 41 1016.6
20260506203056 20 10 1.6 8.0 0.00 0.00 0.00 42 1016.6
20260506201622 20 30 0.0 8.0 0.00 0.00 0.00 44 1016.8
20260506200058 20 0 1.6 8.0 0.00 0.00 0.00 41 1016.8
20260506194557 18 0 1.6 12.9 0.00 0.00 0.00 45 1017.1
20260506193056 19 67 0.0 9.7 0.00 0.00 0.00 47 1017.5
20260506191601 19 13 1.6 16.1 0.00 0.00 0.00 47 1017.6
20260506190058 18 67 3.2 12.9 0.00 0.00 0.00 43 1017.7
20260506184603 18 14 1.6 16.1 0.00 0.00 0.00 47 1017.8
20260506183059 19 62 1.6 12.9 0.00 0.00 0.00 41 1017.9
20260506181604 18 44 1.6 8.0 0.00 0.00 0.00 49 1018.0
20260506180105 17 0 0.0 12.9 0.00 0.00 0.00 45 1018.2
20260506174610 17 49 3.2 11.3 0.00 0.00 0.00 44 1018.3
20260506173128 17 63 1.6 11.3 0.00 0.00 0.00 44 1018.4
20260506171611 17 0 3.2 11.3 0.00 0.00 0.00 47 1018.7
20260506170110 18 323 0.0 14.5 0.00 0.00 0.00 47 1018.8
20260506164556 17 0 1.6 8.0 0.00 0.00 0.00 47 1018.8
20260506163104 17 201 1.6 8.0 0.00 0.00 0.00 45 1018.9
20260506161603 16 5 1.6 12.9 0.00 0.00 0.00 46 1018.6
20260506160056 17 126 1.6 11.3 0.00 0.00 0.00 45 1018.4
20260506154602 16 269 1.6 11.3 0.00 0.00 0.00 49 1018.2
20260506153058 15 20 1.6 12.9 0.00 0.00 0.00 54 1018.0
20260506151558 15 323 1.6 8.0 0.00 0.00 0.00 52 1017.6
20260506150057 15 54 1.6 12.9 0.00 0.00 0.00 58 1017.7
20260506144600 14 26 1.6 9.7 0.00 0.00 0.00 60 1017.2
20260506143055 13 344 1.6 11.3 0.00 0.00 0.00 63 1017.6
20260506141558 12 0 1.6 11.3 0.00 0.00 0.00 66 1017.7
20260506134558 11 9 3.2 12.9 0.00 0.00 0.00 72 1017.5
20260506133102 10 46 1.6 11.3 0.00 0.00 0.00 75 1017.9
20260506131557 10 65 0.0 9.7 0.00 0.00 0.00 76 1017.5
20260506124559 9 42 1.6 9.7 0.00 0.00 0.00 77 1017.4
20260506123056 9 0 0.0 6.4 0.00 0.00 0.00 78 1017.4
20260506121605 8 0 1.6 8.0 0.00 0.00 0.00 80 1017.2
20260506120110 8 0 0.0 6.4 0.00 0.00 0.00 81 1017.1
20260506114619 8 0 0.0 8.0 0.00 0.00 0.00 83 1017.2
20260506113057 8 0 0.0 4.8 0.00 0.00 0.00 84 1016.9
20260506111557 8 13 0.0 8.0 0.00 0.00 0.00 85 1017.0
20260506110058 8 0 0.0 9.7 0.00 0.00 0.00 85 1017.0
20260506104558 8 347 0.0 6.4 0.00 0.00 0.00 85 1017.0
20260506103057 8 9 0.0 6.4 0.00 0.00 0.00 84 1016.5
20260506101557 8 5 1.6 6.4 0.00 0.00 0.00 84 1016.0
20260506100056 8 302 0.0 4.8 0.00 0.00 0.00 84 1015.9
20260506094557 8 0 1.6 6.4 0.00 0.00 0.00 84 1015.8
20260506093112 8 17 0.0 9.7 0.00 0.00 0.00 83 1015.6